Regional Weather Roundup
Issued by NWS

Home | Current Version | Previous Version | Graphics & Text | Print | Product List | Glossary On
Versions: 1 2 3 4 5 6 7 8 9 10 11 12 13 14 15 16 17 18 19 20 21 22 23 24 25 26 27
000
ASUS45 KCYS 250210
RWRWY

WYOMING REGIONAL WEATHER ROUNDUP
NATIONAL WEATHER SERVICE CHEYENNE WY
700 PM MST FRI FEB 24 2017

NOTE:  "FAIR" INDICATES FEW OR NO CLOUDS BELOW 12,000 FEET
WITH NO SIGNIFICANT WEATHER AND/OR OBSTRUCTIONS TO VISIBILITY.

WYZ001-250300-
YELLOWSTONE NATIONAL PARK

CITY           SKY/WX    TMP DP  RH WIND       PRES   REMARKS
LK YELLOWSTONE   N/A      6   2  83 CALM      29.93R
W YELLOWSTONE  NOT AVBL

$$
WYZ002>013-054>058-071-098>099-250300-
NORTHERN WYOMING

CITY           SKY/WX    TMP DP  RH WIND       PRES   REMARKS
JACKSON        CLOUDY    16   7  67 S10       29.99R WCI   3
CODY           FLURRIES  24  19  81 N9        29.97R WCI  14
GREYBULL       CLOUDY    28  20  71 NW5       29.99R WCI  23
WORLAND        MOCLDY    22  18  85 S3        29.98R
SHERIDAN       CLOUDY    26  20  77 MISG      29.98S
BUFFALO        MOCLDY    18  12  77 W7        29.96R WCI   9
GILLETTE       FAIR      19  14  81 S9        29.98R WCI   8
HULETT         CLOUDY    25  19  80 MISG      29.99S
NEWCASTLE      MOCLDY    16  14  93 CALM      30.03S

$$
WYZ014>020-022>026-101>103-250300-
CENTRAL WYOMING

CITY           SKY/WX    TMP DP  RH WIND       PRES   REMARKS
BIG PINEY      MOCLDY     7   2  80 N9        29.96R WCI  -7
PINEDALE       FAIR       5  -2  72 NW10      29.97R WCI -10
DUBOIS         MOCLDY    14   3  62 W17       29.87S WCI  -3
LANDER         FAIR      12   7  80 W12       29.94R WCI  -2
RIVERTON       CLOUDY    15  10  80 W5        29.95R WCI   8
CASPER         FAIR      11   7  84 SW8       29.96R WCI  -1
DOUGLAS        FAIR       8   5  87 E3        29.99R

$$
WYZ021-027>030-104>119-250300-
SOUTHERN WYOMING

CITY           SKY/WX    TMP DP  RH WIND       PRES   REMARKS
EVANSTON       FAIR       9   1  70 W10       30.01R WCI  -5
FORT BRIDGER   FAIR      11   8  84 W16       30.03R WCI  -5
ROCK SPRINGS   FAIR      15   8  73 W17       29.97R WCI  -1
DIXON            N/A      9   5  83 CALM      30.02R
RAWLINS        FAIR      13   6  74 SW12      29.93S WCI  -1
SARATOGA       FAIR      12   5  73 SW9       29.94R WCI   0
LARAMIE        FAIR       7   4  87 S3        29.90R
CHEYENNE       FAIR      12   8  84 SW8       29.96R WCI   0
TORRINGTON     FAIR      17  12  80 CALM      30.03S HAZE
PINE BLUFFS    FAIR      18  14  86 CALM      30.01S

$$




USA.gov is the U.S. government's official web portal to all federal, state and local government web resources and services.